sim
Sign-in with your pilot id or email,
or register
Callsign
Passwort

Schedule Details

Flight Number: RYR2171 (2)
Departure: Bratislava M. R. Stefanik Airport (LZIB) at 14:40
Arrival: Thessaloniki International Airport (LGTS) at 16:30
Route: Ryanair Passenger Schedule. Enter filed route here before submitting Pirep.

Weather Information
Getting current METAR information for LZIB 172200Z VRB02KT CAVOK 19/15 Q1014
Getting current METAR information for LGTS 172220Z VRB03KT 9999 FEW025 21/16 Q1015 NOSIG

Schedule Frequency

Route Map